EW4431 Weather Reports


Display with metric or nautical units.
time (UTC)temp
F
wind
direction
speed
MPH
gust
MPH
rain 1hr
in
rain 24hr
in
rain mn
in
humidity
%
barometer
mb
20260905034556 94 103 0.0 2.0 0.00 0.00 0.00 28 1006.7
20260905033023 95 252 0.0 3.0 0.00 0.00 0.00 28 1006.4
20260905031522 95 205 1.0 4.0 0.00 0.00 0.00 28 1006.2
20260905030018 94 91 0.0 0.0 0.00 0.00 0.00 35 1005.9
20260905024517 95 91 0.0 0.0 0.00 0.00 0.00 33 1005.6
20260905023020 95 91 0.0 0.0 0.00 0.00 0.00 33 1005.4
20260905021512 96 91 0.0 1.0 0.00 0.00 0.00 33 1005.2
20260905020041 96 11 0.0 2.0 0.00 0.00 0.00 32 1005.1
20260905014540 96 37 0.0 2.0 0.00 0.00 0.00 31 1005.0
20260905013037 97 11 1.0 3.0 0.00 0.00 0.00 32 1005.1
20260905011544 97 33 0.0 3.0 0.00 0.00 0.00 32 1005.0
20260905010035 97 344 0.0 4.0 0.00 0.00 0.00 31 1004.9
20260905004538 97 236 0.0 1.0 0.00 0.00 0.00 30 1004.9
20260905003032 98 256 0.0 3.0 0.00 0.00 0.00 30 1005.0
20260905001530 99 260 1.0 5.0 0.00 0.00 0.00 29 1005.1
20260905000034 100 42 0.0 2.0 0.00 0.00 0.00 28 1005.1
20260904234528 100 221 0.0 0.0 0.00 0.00 0.00 28 1005.1
20260904233025 99 257 0.0 3.0 0.00 0.00 0.00 30 1005.3
20260904231525 98 244 0.0 2.0 0.00 0.00 0.00 31 1005.4
20260904230046 99 39 0.0 5.0 0.00 0.00 0.00 32 1005.5
20260904224518 99 285 1.0 3.0 0.00 0.00 0.00 31 1005.7
20260904223058 98 255 0.0 1.0 0.00 0.00 0.00 32 1005.7
20260904221545 99 73 1.0 5.0 0.00 0.00 0.00 31 1006.0
20260904220012 99 100 2.0 6.0 0.00 0.00 0.00 30 1006.1
20260904214512 99 229 1.0 6.0 0.00 0.00 0.00 30 1006.3
20260904213007 101 289 1.0 5.0 0.00 0.00 0.00 27 1006.5
20260904211505 102 279 2.0 8.0 0.00 0.00 0.00 28 1006.6
20260904210101 101 141 1.0 7.0 0.00 0.00 0.00 30 1006.8
20260904204557 101 140 2.0 6.0 0.00 0.00 0.00 31 1006.9
20260904203054 100 243 2.0 7.0 0.00 0.00 0.00 32 1007.3
20260904201555 100 113 0.0 9.0 0.00 0.00 0.00 33 1007.5
20260904200055 100 125 4.0 12.0 0.00 0.00 0.00 33 1007.7
20260904194548 99 281 2.0 6.0 0.00 0.00 0.00 36 1008.0
20260904193041 99 131 1.0 7.0 0.00 0.00 0.00 34 1008.2
20260904191638 99 280 1.0 10.0 0.00 0.00 0.00 36 1008.4
20260904190035 99 98 0.0 5.0 0.00 0.00 0.00 36 1008.6
20260904184551 98 84 0.0 5.0 0.00 0.00 0.00 39 1008.9
20260904183030 97 201 0.0 4.0 0.00 0.00 0.00 38 1009.0
20260904181527 97 122 2.0 7.0 0.00 0.00 0.00 39 1009.3
20260904180023 96 292 1.0 7.0 0.00 0.00 0.00 42 1009.4
20260904174523 95 165 1.0 5.0 0.00 0.00 0.00 43 1009.5
20260904173013 94 84 2.0 9.0 0.00 0.00 0.00 43 1009.6
20260904171502 94 237 2.0 9.0 0.00 0.00 0.00 45 1009.6
20260904170059 93 124 2.0 12.0 0.00 0.00 0.00 47 1009.5
20260904164553 93 96 2.0 8.0 0.00 0.00 0.00 46 1009.3
20260904163054 92 76 2.0 7.0 0.00 0.00 0.00 48 1009.2
20260904161542 90 95 5.0 11.0 0.00 0.00 0.00 50 1009.3
20260904160038 91 77 4.0 11.0 0.00 0.00 0.00 50 1009.3
20260904154533 90 102 5.0 10.0 0.00 0.00 0.00 51 1009.2
20260904153029 89 70 3.0 10.0 0.00 0.00 0.00 53 1009.2
20260904151522 89 77 2.0 7.0 0.00 0.00 0.00 54 1009.2
20260904150018 88 286 4.0 8.0 0.00 0.00 0.00 55 1009.1
20260904144514 88 108 2.0 7.0 0.00 0.00 0.00 56 1009.1
20260904143010 87 87 3.0 7.0 0.00 0.00 0.00 58 1009.0
20260904141501 86 112 1.0 4.0 0.00 0.00 0.00 59 1008.8
20260904134553 0 0.0 0.0 0.00 0.00 0.00 1008.5
20260904133048 0 0.0 0.0 0.00 0.00 0.00 1008.2
20260904131541 0 0.0 0.0 0.00 0.00 0.00 1008.0
20260904130038 0 0.0 0.0 0.00 0.00 0.00 1007.8
20260904124532 0 0.0 0.0 0.00 0.00 0.00 1007.6
20260904123028 0 0.0 0.0 0.00 0.00 0.00 1007.5
20260904121522 0 0.0 0.0 0.00 0.00 0.00 1007.4
20260904120020 0 0.0 0.0 0.00 0.00 0.00 1007.3
20260904114513 0 0.0 0.0 0.00 0.00 0.00 1007.3
20260904113008 0 0.0 0.0 0.00 0.00 0.00 1007.3
20260904111502 0 0.0 0.0 0.00 0.00 0.00 1007.3
20260904110058 0 0.0 0.0 0.00 0.00 0.00 1007.2
20260904104554 0 0.0 0.0 0.00 0.00 0.00 1007.1
20260904103059 83 90 0.0 0.0 0.00 0.00 0.00 58 1006.9
20260904101545 84 96 0.0 2.0 0.00 0.00 0.00 58 1006.9
20260904100046 85 109 0.0 5.0 0.00 0.00 0.00 58 1006.7
20260904094544 85 113 1.0 3.0 0.00 0.00 0.00 58 1006.7
20260904093057 85 91 0.0 2.0 0.00 0.00 0.00 57 1006.7
20260904091541 85 115 0.0 2.0 0.00 0.00 0.00 56 1006.6
20260904090040 85 98 0.0 3.0 0.00 0.00 0.00 55 1006.7
20260904084538 86 86 2.0 5.0 0.00 0.00 0.00 55 1006.7
20260904084536 86 76 2.0 5.0 0.00 0.00 0.00 55 1006.7
20260904083037 86 96 1.0 8.0 0.00 0.00 0.00 54 1006.7
20260904081533 86 109 0.0 3.0 0.00 0.00 0.00 54 1006.9
20260904080002 87 88 0.0 5.0 0.00 0.00 0.00 53 1006.8
20260904074500 87 84 0.0 5.0 0.00 0.00 0.00 53 1006.8
20260904073100 87 146 0.0 6.0 0.00 0.00 0.00 52 1006.7
20260904071559 88 255 0.0 5.0 0.00 0.00 0.00 51 1006.6
20260904070053 88 81 0.0 3.0 0.00 0.00 0.00 51 1006.6
20260904064551 88 189 1.0 6.0 0.00 0.00 0.00 50 1006.4
20260904063050 89 117 2.0 6.0 0.00 0.00 0.00 49 1006.2
20260904061544 89 134 1.0 6.0 0.00 0.00 0.00 48 1006.1
20260904060041 90 96 0.0 5.0 0.00 0.00 0.00 48 1006.0
20260904054540 90 117 0.0 6.0 0.00 0.00 0.00 45 1006.0
20260904053037 90 131 0.0 4.0 0.00 0.00 0.00 44 1005.9
20260904051535 90 133 0.0 1.0 0.00 0.00 0.00 43 1005.9
20260904050032 90 153 1.0 4.0 0.00 0.00 0.00 43 1005.8
20260904044530 90 121 0.0 0.0 0.00 0.00 0.00 42 1005.8
20260904043024 91 216 0.0 2.0 0.00 0.00 0.00 42 1005.8
20260904041521 91 150 0.0 2.0 0.00 0.00 0.00 42 1005.7
20260904040018 91 179 0.0 5.0 0.00 0.00 0.00 42 1005.4